Regional Weather Roundup
Issued by NWS

Home | Current Version | Previous Version | Text Only | Print | Product List | Glossary On
Versions: 1 2 3 4 5 6 7 8 9 10 11 12 13 14 15 16 17 18 19 20 21 22 23 24 25 26 27 28 29 30 31 32 33 34 35 36 37 38 39 40 41 42 43 44 45 46 47 48 49 50
000
ASUS43 KFSD 020810
RWRSD

WEATHER ROUNDUP FOR SOUTH DAKOTA
NATIONAL WEATHER SERVICE SIOUX FALLS SD
300 AM CDT SAT AUG 02 2014

NOTE: "FAIR" INDICATES FEW OR NO CLOUDS BELOW 12,000 FEET WITH NO
SIGNIFICANT WEATHER AND/OR OBSTRUCTIONS TO VISIBILITY.


SDZ001>005-009-010-012>017-020900-
NORTHWEST AND NORTH CENTRAL SOUTH DAKOTA

CITY           SKY/WX    TMP DP  RH WIND       PRES   REMARKS
BUFFALO          N/A     61  57  87 NE12      30.07F
FAITH            N/A     62  56  80 E10       30.09R
MOBRIDGE       CLOUDY    63  60  90 NW3       30.05S
$$

SDZ012>016-024>037-041>051-057-063-072>074-020900-
SOUTHWEST AND SOUTH CENTRAL SOUTH DAKOTA

CITY           SKY/WX    TMP DP  RH WIND       PRES   REMARKS
RAPID CTY ARPT PTCLDY    68  47  46 CALM      30.09F
PIERRE         MOCLDY    67  60  78 E13       30.08F
CUSTER         PTCLDY    59  43  55 NW5       30.26S
ELLSWORTH AFB  PTCLDY    73  51  45 N17       30.08F
PHILIP         PTCLDY    67  58  72 N3        30.04S
PINE RIDGE     PTCLDY    55  52  89 CALM      30.10F
WINNER         FAIR      68  59  73 S13       30.07F
$$

SDZ004>011-016>023-039-040-020900-
NORTHEAST SOUTH DAKOTA

CITY           SKY/WX    TMP DP  RH WIND       PRES   REMARKS
ABERDEEN       CLOUDY    63  59  87 SW9       30.11R
WATERTOWN      PTCLDY    63  58  83 SE5       30.11S
SISSETON         N/A     61  60  97 CALM      30.08S
$$

SDZ017-020-022-023-036>040-048>070-020900-
SOUTHEAST SOUTH DAKOTA

CITY           SKY/WX    TMP DP  RH WIND       PRES   REMARKS
SIOUX FALLS    MOCLDY    59  57  93 CALM      30.12F
HURON          CLOUDY    66  57  72 SE5       30.07S
CHAMBERLAIN    PTCLDY    65  60  85 E3        30.07R
MITCHELL       CLOUDY    69  59  70 S8        30.07F
YANKTON        CLOUDY    64  61  88 SE6       30.11F
$$

ABBREVIATIONS USED IN REMARKS
   TC - TEMPERATURE IN CELSIUS
  WCI - WIND CHILL INDEX
   HX - HEAT INDEX
  VSB - VISIBILITY




USA.gov is the U.S. government's official web portal to all federal, state and local government web resources and services.